Back to catalog

STARLINK-36922

AliveCommunicationsSSO
NORAD 68123·PAYLOAD·🇺🇸 United States

Launched Mar 8, 2026 from Vandenberg Space Force Base

Loading…

Next Passes (next 24 hours)

TLE

FreshSource: CelesTrak SupGP

Epoch: Sep 14, 2026, 23:32 UTC

1 68123C 26044Y   26257.98104167 -.00057743  00000+0 -17928-2 0  2577
2 68123  97.2851 217.0776 0001878  91.5007   6.8665 15.33461790    11

Track STARLINK-36922 in real time with AllMySat

Download on the App Store